INTELSAT 10-02

Last updated on Sun Apr 12 2026 00:02:51 GMT+0000 (Coordinated Universal Time)

1 28358U 04022A 26101.37788977 -.00000010 00000+0 00000+0 0 9990 2 28358 0.0457 54.5643 0001998 27.3710 252.7053 1.00271172 79885
UTC large
Height (km)
Speed (km/s)
/
Latitude / Longitude
Inclination (degrees)
Orbital Period (minutes)
Azimuth
Elevation
Range (km)
Doppler Factor

Next 0 passes for location: London (51.5072 / 0.1276)

Sorry there are no passes over London.
INTELSAT 10-02